| time (UTC) | temp F | wind direction | speed MPH | gust MPH | rain 1hr in | rain 24hr in | rain mn in | humidity % | barometer mb |
| 20260503060337 | 59 | 0 | 1.0 | 0.0 | 0.00 | 0.00 | 0.00 | 10 | 1017.0 |
| 20260503054936 | 59 | 0 | 1.0 | 0.0 | 0.00 | 0.00 | 0.00 | 10 | 1017.0 |
| 20260503053536 | 59 | 0 | 1.0 | 0.0 | 0.00 | 0.00 | 0.00 | 10 | 1017.0 |
| 20260503052135 | 59 | 0 | 1.0 | 0.0 | 0.00 | 0.00 | 0.00 | 10 | 1018.0 |
| 20260503050735 | 59 | 0 | 1.0 | 0.0 | 0.00 | 0.00 | 0.00 | 10 | 1018.0 |
| 20260503045332 | 59 | 0 | 2.0 | 0.0 | 0.00 | 0.00 | 0.00 | 10 | 1018.0 |
| 20260503043932 | 59 | 0 | 2.0 | 0.0 | 0.00 | 0.00 | 0.00 | 10 | 1018.0 |
| 20260503042530 | 59 | 0 | 2.0 | 0.0 | 0.00 | 0.00 | 0.00 | 10 | 1018.0 |
| 20260503041129 | 59 | 0 | 2.0 | 0.0 | 0.00 | 0.00 | 0.00 | 10 | 1018.0 |
| 20260503035727 | 59 | 0 | 2.0 | 0.0 | 0.00 | 0.00 | 0.00 | 10 | 1018.0 |
| 20260503034324 | 59 | 0 | 2.0 | 0.0 | 0.00 | 0.00 | 0.00 | 10 | 1018.0 |
| 20260503032924 | 55 | 290 | 8.0 | 0.0 | 0.00 | 0.00 | 0.00 | 93 | 1018.0 |
| 20260503031523 | 55 | 290 | 8.0 | 0.0 | 0.00 | 0.00 | 0.00 | 93 | 1018.0 |
| 20260503030122 | 55 | 290 | 8.0 | 0.0 | 0.00 | 0.00 | 0.00 | 93 | 1018.0 |
| 20260503024720 | 55 | 290 | 8.0 | 0.0 | 0.00 | 0.00 | 0.00 | 93 | 1018.0 |
| 20260503023320 | 55 | 290 | 8.0 | 0.0 | 0.00 | 0.00 | 0.00 | 93 | 1018.0 |
| 20260503021919 | 55 | 290 | 8.0 | 0.0 | 0.00 | 0.00 | 0.00 | 93 | 1017.0 |
| 20260503020518 | 55 | 290 | 8.0 | 0.0 | 0.00 | 0.00 | 0.00 | 93 | 1017.0 |
| 20260503015116 | 55 | 290 | 8.0 | 0.0 | 0.00 | 0.00 | 0.00 | 93 | 1017.0 |
| 20260503013716 | 55 | 290 | 8.0 | 0.0 | 0.00 | 0.00 | 0.00 | 93 | 1017.0 |
| 20260503012315 | 55 | 290 | 8.0 | 0.0 | 0.00 | 0.00 | 0.00 | 93 | 1016.0 |
| 20260503010915 | 55 | 290 | 8.0 | 0.0 | 0.00 | 0.00 | 0.00 | 93 | 1016.0 |
| 20260503005514 | 55 | 290 | 8.0 | 0.0 | 0.00 | 0.00 | 0.00 | 93 | 1016.0 |
| 20260503004114 | 55 | 290 | 8.0 | 0.0 | 0.00 | 0.00 | 0.00 | 93 | 1016.0 |
| 20260503002713 | 56 | 290 | 8.0 | 0.0 | 0.00 | 0.00 | 0.00 | 93 | 1015.0 |
| 20260503001310 | 56 | 290 | 8.0 | 0.0 | 0.00 | 0.00 | 0.00 | 93 | 1015.0 |
| 20260502235908 | 56 | 290 | 8.0 | 0.0 | 0.00 | 0.00 | 0.00 | 93 | 1015.0 |
| 20260502234506 | 56 | 290 | 8.0 | 0.0 | 0.00 | 0.00 | 0.00 | 93 | 1015.0 |
| 20260502233105 | 56 | 290 | 8.0 | 0.0 | 0.00 | 0.00 | 0.00 | 93 | 1015.0 |
| 20260502231700 | 56 | 290 | 8.0 | 0.0 | 0.00 | 0.00 | 0.00 | 93 | 1015.0 |
| 20260502230258 | 56 | 290 | 8.0 | 0.0 | 0.00 | 0.00 | 0.00 | 93 | 1015.0 |
| 20260502224857 | 56 | 290 | 8.0 | 0.0 | 0.00 | 0.00 | 0.00 | 93 | 1015.0 |
| 20260502223456 | 57 | 290 | 8.0 | 0.0 | 0.00 | 0.00 | 0.00 | 93 | 1014.0 |
| 20260502222055 | 57 | 290 | 8.0 | 0.0 | 0.00 | 0.00 | 0.00 | 93 | 1014.0 |
| 20260502220653 | 57 | 290 | 8.0 | 0.0 | 0.00 | 0.00 | 0.00 | 93 | 1014.0 |
| 20260502215252 | 57 | 290 | 8.0 | 0.0 | 0.01 | 0.00 | 0.00 | 93 | 1014.0 |
| 20260502213849 | 58 | 290 | 8.0 | 0.0 | 0.00 | 0.00 | 0.00 | 93 | 1014.0 |
| 20260502212450 | 59 | 290 | 8.0 | 0.0 | 0.00 | 0.00 | 0.00 | 92 | 1013.0 |
| 20260502211048 | 59 | 290 | 8.0 | 0.0 | 0.00 | 0.00 | 0.00 | 92 | 1013.0 |
| 20260502205648 | 59 | 290 | 8.0 | 0.0 | 0.00 | 0.00 | 0.00 | 91 | 1013.0 |
| 20260502204246 | 59 | 290 | 8.0 | 0.0 | 0.00 | 0.00 | 0.00 | 90 | 1013.0 |
| 20260502202845 | 60 | 290 | 8.0 | 0.0 | 0.00 | 0.00 | 0.00 | 87 | 1013.0 |
| 20260502201445 | 60 | 290 | 8.0 | 0.0 | 0.00 | 0.00 | 0.00 | 86 | 1013.0 |
| 20260502200035 | 60 | 290 | 8.0 | 0.0 | 0.00 | 0.00 | 0.00 | 83 | 1013.0 |
| 20260502194634 | 60 | 290 | 8.0 | 0.0 | 0.00 | 0.00 | 0.00 | 82 | 1013.0 |
| 20260502193234 | 60 | 290 | 8.0 | 0.0 | 0.00 | 0.00 | 0.00 | 81 | 1013.0 |
| 20260502191834 | 60 | 290 | 8.0 | 0.0 | 0.00 | 0.00 | 0.00 | 81 | 1014.0 |
| 20260502190433 | 60 | 290 | 8.0 | 0.0 | 0.00 | 0.00 | 0.00 | 81 | 1014.0 |
| 20260502185032 | 60 | 290 | 8.0 | 0.0 | 0.00 | 0.00 | 0.00 | 81 | 1014.0 |
| 20260502183631 | 60 | 290 | 8.0 | 0.0 | 0.00 | 0.00 | 0.00 | 81 | 1014.0 |
| 20260502182231 | 60 | 290 | 8.0 | 0.0 | 0.00 | 0.00 | 0.00 | 81 | 1014.0 |
| 20260502180829 | 60 | 290 | 8.0 | 0.0 | 0.00 | 0.00 | 0.00 | 81 | 1014.0 |
| 20260502163021 | 61 | 310 | 5.0 | 0.0 | 0.00 | 0.00 | 0.00 | 77 | 1016.0 |
| 20260502161620 | 61 | 310 | 5.0 | 0.0 | 0.00 | 0.00 | 0.00 | 77 | 1016.0 |
| 20260502160218 | 61 | 310 | 5.0 | 0.0 | 0.00 | 0.00 | 0.00 | 77 | 1016.0 |
| 20260502152015 | 61 | 0 | 1.0 | 0.0 | 0.00 | 0.00 | 0.00 | 77 | 1015.0 |
| 20260502150614 | 62 | 0 | 1.0 | 0.0 | 0.00 | 0.00 | 0.00 | 77 | 1015.0 |
| 20260502123159 | 59 | 110 | 3.0 | 0.0 | 0.00 | 0.00 | 0.00 | 87 | 1016.0 |
| 20260502121758 | 59 | 110 | 3.0 | 0.0 | 0.00 | 0.00 | 0.00 | 87 | 1016.0 |
| 20260502120358 | 59 | 120 | 3.0 | 0.0 | 0.00 | 0.00 | 0.00 | 86 | 1016.0 |
| 20260502114957 | 59 | 120 | 3.0 | 0.0 | 0.00 | 0.00 | 0.00 | 86 | 1016.0 |
| 20260502113556 | 59 | 120 | 3.0 | 0.0 | 0.00 | 0.00 | 0.00 | 86 | 1016.0 |
| 20260502112155 | 59 | 120 | 3.0 | 0.0 | 0.00 | 0.00 | 0.00 | 85 | 1016.0 |
| 20260502110754 | 60 | 120 | 3.0 | 0.0 | 0.00 | 0.00 | 0.00 | 84 | 1016.0 |
| 20260502105352 | 61 | 120 | 3.0 | 0.0 | 0.00 | 0.00 | 0.00 | 82 | 1016.0 |
| 20260502103948 | 61 | 120 | 3.0 | 0.0 | 0.00 | 0.00 | 0.00 | 82 | 1016.0 |
| 20260502102547 | 61 | 120 | 3.0 | 0.0 | 0.00 | 0.00 | 0.00 | 82 | 1015.0 |
| 20260502101147 | 61 | 120 | 3.0 | 0.0 | 0.00 | 0.00 | 0.00 | 82 | 1015.0 |
| 20260502090144 | 52 | 90 | 4.0 | 0.0 | 0.00 | 0.00 | 0.00 | 82 | 1015.0 |
| 20260502070938 | 52 | 100 | 4.0 | 1.0 | 0.00 | 0.00 | 0.00 | 81 | 1015.0 |
| 20260502065533 | 52 | 100 | 4.0 | 1.0 | 0.00 | 0.00 | 0.00 | 81 | 1015.0 |